Simultaneous Nadir Overpasses (SNOs) Predictions

Prediction of SNOs between GOES-15 and LANDSAT-8 Satellite Orbit:

Table of predicted SNOs for the next 14.0 days since TLE Epoch: 1/15/2022
Index Date Time (GOES-15) GOES-15 Lat,Lon LANDSAT-8 Lat,Lon Distance(km) Time Diff (sec)
1 01/15/2022 07:00:57 0.02,-128.34 -0.68,-131.66 377.08 80
2 01/17/2022 06:48:45 0.02,-128.35 -0.06,-128.70 40.24 80
3 01/19/2022 06:33:53 0.02,-128.35 0.57,-125.74 296.28 80
4 01/19/2022 18:57:48 -0.01,-128.37 0.55,-130.89 288.26 80
5 01/21/2022 18:42:56 -0.01,-128.36 -0.08,-127.94 48.13 80
6 01/23/2022 18:30:44 -0.01,-128.36 -0.71,-124.98 383.98 80
7 01/24/2022 06:54:48 0.00,-128.34 -0.38,-130.17 207.89 80
8 01/26/2022 06:39:56 0.00,-128.33 0.26,-127.22 127.07 80
9 01/26/2022 19:03:51 0.00,-128.34 0.86,-132.37 458.27 80
10 01/28/2022 06:27:43 0.01,-128.31 0.85,-124.25 461.06 80
11 01/28/2022 18:48:59 -0.01,-128.32 0.21,-129.41 124.50 80
